Weather History for Pine River, MN

Change the Weather History Date:

Saturday, October 6, 2012

  Actual Average Record
Temperature  
Mean Temperature 32 °F -  
Max Temperature 42 °F 58 °F 78 °F (2004)
Min Temperature 19 °F 36 °F 19 °F (2012)
Degree Days  
Heating Degree Days 34    
Moisture  
Dew Point 25 °F    
Average Humidity 68    
Maximum Humidity 93    
Minimum Humidity 39    
Precipitation  
Precipitation 0.00 in - - ()
Sea Level Pressure  
Sea Level Pressure 30.24 in    
Wind  
Wind Speed 8 mph (NNW)    
Max Wind Speed 13 mph    
Max Gust Speed 18 mph    
Visibility 10 miles    
Events Rain , Snow    
Averages and records for this station are not official NWS values.
T = Trace of Precipitation, MM = Missing Value Source: NWS Daily Summary

Daily Weather History Graph

Daily Weather History Graph

Search for Another Location

Airport:

Trip Planner

Search our weather history database for the weather conditions in past years. The results will help you decide how hot, cold, wet, or windy it might be!

Date:

Astronomy

Oct. 06, 2012 Rise Set
Actual Time 7:23 AM CDT 6:46 PM CDT
Civil Twilight 6:53 AM CDT 7:16 PM CDT
Nautical Twilight 6:18 AM CDT 7:51 PM CDT
Astronomical Twilight 5:42 AM CDT 8:27 PM CDT
Moon 10:46 PM CDT (10/6) 1:35 PM CDT (10/6)
Length of Visible Light 12h 23m
Length of Day
11h 22m
Waning Gibbous, 65% of the Moon is Illuminated
Oct 6
Waning Gibbous
Oct 8
Last Quarter
Oct 15
New
Oct 21
First Quarter
Oct 29
Full

Hourly Weather History & Observations

Time (CDT) Temp. Windchill Dew Point Humidity Pressure Visibility Wind Dir Wind Speed Gust Speed Precip Events Conditions
12:13 AM 33.8 °F 27.7 °F 30.2 °F 87% 30.17 in 10.0 mi NNW 6.9 mph - N/A Rain Light Rain
12:32 AM 33.8 °F 25.8 °F 30.2 °F 87% 30.17 in 7.0 mi NNW 10.4 mph - N/A   Overcast
12:53 AM 33.8 °F 26.4 °F 30.2 °F 87% 30.18 in 10.0 mi NNW 9.2 mph - N/A   Overcast
1:13 AM 33.8 °F 27.0 °F 30.2 °F 87% 30.18 in 7.0 mi NNW 8.1 mph - N/A Snow Light Snow
1:33 AM 33.8 °F 25.8 °F 28.4 °F 81% 30.18 in 10.0 mi NNW 10.4 mph 16.1 mph N/A   Overcast
1:53 AM 33.8 °F 25.8 °F 28.4 °F 81% 30.19 in 10.0 mi NNW 10.4 mph 17.3 mph N/A   Overcast
2:13 AM 33.8 °F 25.3 °F 28.4 °F 81% 30.19 in 7.0 mi NNW 11.5 mph - N/A   Overcast
2:33 AM 33.8 °F 27.0 °F 30.2 °F 87% 30.19 in 7.0 mi NNW 8.1 mph 16.1 mph N/A Snow Light Snow
2:53 AM 33.8 °F 26.4 °F 28.4 °F 81% 30.20 in 7.0 mi NNW 9.2 mph - N/A Snow Light Snow
3:13 AM 33.8 °F 26.4 °F 28.4 °F 81% 30.20 in 10.0 mi NNW 9.2 mph - N/A   Mostly Cloudy
3:32 AM 33.8 °F 26.4 °F 28.4 °F 81% 30.20 in 10.0 mi NNW 9.2 mph - N/A   Overcast
3:53 AM 33.8 °F 24.8 °F 28.4 °F 81% 30.20 in 7.0 mi NNW 12.7 mph - N/A   Mostly Cloudy
4:12 AM 32.0 °F 24.2 °F 28.4 °F 87% 30.21 in 2.0 mi North 9.2 mph - N/A Snow Light Snow
4:33 AM 33.8 °F 25.3 °F 28.4 °F 81% 30.22 in 10.0 mi NNW 11.5 mph 18.4 mph N/A   Overcast
4:52 AM 33.8 °F 27.7 °F 28.4 °F 81% 30.22 in 10.0 mi NNW 6.9 mph - N/A   Overcast
5:13 AM 33.8 °F 25.3 °F 28.4 °F 81% 30.22 in 10.0 mi NNW 11.5 mph 17.3 mph N/A   Overcast
5:33 AM 33.8 °F 27.0 °F 26.6 °F 75% 30.23 in 10.0 mi NNW 8.1 mph - N/A   Overcast
5:53 AM 33.8 °F 27.0 °F 26.6 °F 75% 30.23 in 10.0 mi NNW 8.1 mph - N/A   Overcast
6:13 AM 33.8 °F 27.7 °F 28.4 °F 81% 30.24 in 10.0 mi North 6.9 mph - N/A   Overcast
6:33 AM 33.8 °F 26.4 °F 26.6 °F 75% 30.24 in 10.0 mi NNW 9.2 mph - N/A   Overcast
6:53 AM 33.8 °F 29.6 °F 26.6 °F 75% 30.25 in 10.0 mi NNW 4.6 mph - N/A   Overcast
7:13 AM 33.8 °F 28.6 °F 28.4 °F 81% 30.25 in 10.0 mi NNW 5.8 mph - N/A   Overcast
7:31 AM 33.8 °F 27.7 °F 26.6 °F 75% 30.25 in 10.0 mi NNW 6.9 mph - N/A   Overcast
7:53 AM 33.8 °F 27.7 °F 26.6 °F 75% 30.26 in 10.0 mi NW 6.9 mph - N/A   Overcast
8:33 AM 33.8 °F 28.6 °F 24.8 °F 70% 30.27 in 10.0 mi North 5.8 mph - N/A   Overcast
8:53 AM 33.8 °F 27.0 °F 24.8 °F 70% 30.28 in 10.0 mi NNW 8.1 mph 16.1 mph N/A   Overcast
9:13 AM 33.8 °F 26.4 °F 26.6 °F 75% 30.29 in 10.0 mi NW 9.2 mph - N/A   Overcast
9:33 AM 33.8 °F 27.7 °F 28.4 °F 81% 30.29 in 10.0 mi NW 6.9 mph - N/A   Overcast
9:52 AM 35.6 °F 28.6 °F 28.4 °F 75% 30.30 in 10.0 mi NW 9.2 mph - N/A   Overcast
10:13 AM 35.6 °F 29.9 °F 28.4 °F 75% 30.30 in 10.0 mi NW 6.9 mph - N/A   Mostly Cloudy
10:33 AM 35.6 °F 29.9 °F 28.4 °F 75% 30.30 in 10.0 mi NW 6.9 mph - N/A   Overcast
10:53 AM 35.6 °F 28.6 °F 28.4 °F 75% 30.31 in 10.0 mi WNW 9.2 mph 16.1 mph N/A   Overcast
11:13 AM 37.4 °F 29.8 °F 28.4 °F 70% 30.31 in 10.0 mi NNW 11.5 mph 16.1 mph N/A   Overcast
11:33 AM 37.4 °F 30.8 °F 26.6 °F 65% 30.31 in 10.0 mi NNW 9.2 mph - N/A   Overcast
11:52 AM 37.4 °F 32.1 °F 26.6 °F 65% 30.31 in 10.0 mi NNW 6.9 mph - N/A   Overcast
12:12 PM 37.4 °F 31.4 °F 26.6 °F 65% 30.31 in 10.0 mi NNW 8.1 mph - N/A   Overcast
12:33 PM 39.2 °F 33.6 °F 24.8 °F 56% 30.30 in 10.0 mi North 8.1 mph - N/A   Mostly Cloudy
12:52 PM 39.2 °F 33.0 °F 24.8 °F 56% 30.30 in 10.0 mi NNW 9.2 mph - N/A   Mostly Cloudy
1:13 PM 42.8 °F 37.0 °F 24.8 °F 49% 30.29 in 10.0 mi NNW 10.4 mph - N/A   Mostly Cloudy
1:31 PM 39.2 °F 33.0 °F 24.8 °F 56% 30.29 in 10.0 mi NNW 9.2 mph - N/A   Overcast
1:53 PM 41.0 °F 34.7 °F 23.0 °F 49% 30.28 in 10.0 mi NW 10.4 mph - N/A   Mostly Cloudy
2:13 PM 42.8 °F 37.0 °F 21.2 °F 42% 30.28 in 10.0 mi North 10.4 mph - N/A   Mostly Cloudy
2:33 PM 42.8 °F 39.3 °F 19.4 °F 39% 30.27 in 10.0 mi West 5.8 mph 9.2 mph N/A   Mostly Cloudy
2:52 PM 42.8 °F 38.0 °F 21.2 °F 42% 30.27 in 10.0 mi NW 8.1 mph - N/A   Mostly Cloudy
3:13 PM 42.8 °F 37.5 °F 21.2 °F 42% 30.26 in 10.0 mi NNW 9.2 mph - N/A   Overcast
3:32 PM 42.8 °F 37.5 °F 21.2 °F 42% 30.26 in 10.0 mi North 9.2 mph - N/A   Overcast
3:52 PM 42.8 °F 39.3 °F 19.4 °F 39% 30.26 in 10.0 mi North 5.8 mph - N/A   Mostly Cloudy
4:13 PM 42.8 °F 39.3 °F 21.2 °F 42% 30.25 in 10.0 mi NW 5.8 mph - N/A   Overcast
4:33 PM 42.8 °F 38.6 °F 19.4 °F 39% 30.25 in 10.0 mi NW 6.9 mph - N/A   Mostly Cloudy
4:53 PM 42.8 °F 39.3 °F 19.4 °F 39% 30.24 in 10.0 mi NW 5.8 mph - N/A   Mostly Cloudy
5:13 PM 42.8 °F 40.1 °F 19.4 °F 39% 30.24 in 10.0 mi WNW 4.6 mph - N/A   Mostly Cloudy
5:32 PM 42.8 °F 38.6 °F 21.2 °F 42% 30.24 in 10.0 mi NW 6.9 mph - N/A   Mostly Cloudy
5:52 PM 42.8 °F 39.3 °F 21.2 °F 42% 30.24 in 10.0 mi NW 5.8 mph - N/A   Scattered Clouds
6:13 PM 41.0 °F 37.1 °F 21.2 °F 45% 30.24 in 10.0 mi NNW 5.8 mph - N/A   Scattered Clouds
6:33 PM 41.0 °F 38.0 °F 21.2 °F 45% 30.24 in 10.0 mi WNW 4.6 mph - N/A   Mostly Cloudy
6:53 PM 39.2 °F 35.0 °F 21.2 °F 49% 30.24 in 10.0 mi WNW 5.8 mph - N/A   Scattered Clouds
7:12 PM 37.4 °F 34.9 °F 21.2 °F 52% 30.24 in 10.0 mi WNW 3.5 mph - N/A   Scattered Clouds
7:33 PM 37.4 °F - 23.0 °F 56% 30.24 in 10.0 mi Calm Calm - N/A   Clear
7:53 PM 33.8 °F - 23.0 °F 65% 30.24 in 10.0 mi Calm Calm - N/A   Clear
8:12 PM 33.8 °F - 23.0 °F 65% 30.24 in 10.0 mi Calm Calm - N/A   Clear
8:33 PM 30.2 °F - 23.0 °F 75% 30.24 in 10.0 mi Calm Calm - N/A   Clear
8:52 PM 28.4 °F - 21.2 °F 74% 30.24 in 10.0 mi Calm Calm - N/A   Clear
9:12 PM 28.4 °F - 23.0 °F 80% 30.24 in 10.0 mi Calm Calm - N/A   Clear
9:33 PM 26.6 °F - 21.2 °F 80% 30.23 in 10.0 mi Calm Calm - N/A   Clear
9:52 PM 26.6 °F - 21.2 °F 80% 30.23 in 10.0 mi Calm Calm - N/A   Clear
10:12 PM 24.8 °F - 19.4 °F 80% 30.23 in 10.0 mi Calm Calm - N/A   Clear
10:33 PM 24.8 °F - 19.4 °F 80% 30.22 in 10.0 mi Calm Calm - N/A   Clear
10:53 PM 23.0 °F - 19.4 °F 86% 30.22 in 10.0 mi Calm Calm - N/A   Clear
11:12 PM 23.0 °F - 19.4 °F 86% 30.22 in 10.0 mi Calm Calm - N/A   Clear
11:33 PM 21.2 °F - 17.6 °F 86% 30.21 in 10.0 mi Calm Calm - N/A   Clear
11:53 PM 19.4 °F - 17.6 °F 93% 30.20 in 10.0 mi Calm Calm - N/A   Clear